Change the Weather History Date:

Wednesday, April 3, 2013

  Actual Average (KDHN) Record (KDHN)
Temperature  
Mean Temperature 56 °F 62 °F  
Max Temperature 62 °F 75 °F 89 °F (1945)
Min Temperature 51 °F 50 °F 37 °F (1962)
Degree Days  
Heating Degree Days 8 4  
Month to date heating degree days 12  
Since 1 July heating degree days 1782  
Cooling Degree Days 0 1  
Month to date cooling degree days 3  
Year to date cooling degree days 34  
Growing Degree Days 6 (Base 50)    
Moisture  
Dew Point 51 °F    
Average Humidity 77    
Maximum Humidity 100    
Minimum Humidity 51    
Precipitation  
Precipitation 0.00 in 0.14 in 0.98 in (1941)
Month to date precipitation 0.44  
Year to date precipitation 15.72  
Sea Level Pressure  
Sea Level Pressure 30.05 in    
Wind  
Wind Speed 3 mph (ENE)    
Max Wind Speed 14 mph    
Max Gust Speed 21 mph    
Visibility 9 miles    
Events Rain    
T = Trace of Precipitation, MM = Missing Value Source: NWS Daily Summary

Daily Weather History Graph

Daily Weather History Graph

Search for Another Location

Airport or City:

Trip Planner

Search our weather history database for the weather conditions in past years. The results will help you decide how hot, cold, wet, or windy it might be!

Date:

Astronomy

Apr. 03, 2013 Rise Set
Actual Time 7:25 AM EDT 8:00 PM EDT
Civil Twilight 7:00 AM EDT 8:24 PM EDT
Nautical Twilight 6:32 AM EDT 8:53 PM EDT
Astronomical Twilight 6:02 AM EDT 9:23 PM EDT
Moon 2:41 AM EDT (4/3) 1:35 PM EDT (4/3)
Length of Visible Light 13h 24m
Length of Day
12h 35m
Last Quarter, 45% of the Moon is Illuminated
Apr 3
Last Quarter
Apr 10
New
Apr 18
First Quarter
Apr 25
Full
May 2
Last Quarter

Hourly Weather History & Observations

Time (EDT) Temp. Dew Point Humidity Pressure Visibility Wind Dir Wind Speed Gust Speed Precip Events Conditions
12:15 AM 55.4 °F 53.6 °F 94% 30.07 in 7.0 mi Calm Calm - N/A   Clear
12:35 AM 55.4 °F 53.6 °F 94% 30.07 in 10.0 mi Calm Calm - N/A   Clear
12:55 AM 53.6 °F 53.6 °F 100% 30.07 in 5.0 mi Calm Calm - N/A   Clear
1:15 AM 53.6 °F 53.6 °F 100% 30.08 in 7.0 mi Calm Calm - N/A   Clear
1:35 AM 53.6 °F 53.6 °F 100% 30.07 in 7.0 mi Calm Calm - N/A   Clear
1:55 AM 51.8 °F 51.8 °F 100% 30.06 in 5.0 mi Calm Calm - N/A   Clear
2:15 AM 51.8 °F 51.8 °F 100% 30.05 in 4.0 mi Calm Calm - N/A   Clear
2:35 AM 51.8 °F 51.8 °F 100% 30.05 in 3.0 mi Calm Calm - N/A   Clear
2:55 AM 51.8 °F 51.8 °F 100% 30.05 in 2.5 mi Calm Calm - N/A   Clear
3:15 AM 51.8 °F 51.8 °F 100% 30.04 in 2.0 mi Calm Calm - N/A   Clear
3:35 AM 53.6 °F 51.8 °F 94% 30.03 in 5.0 mi Calm Calm - N/A   Clear
3:55 AM 57.2 °F 51.8 °F 82% 30.04 in 10.0 mi ENE 5.8 mph - N/A   Clear
4:15 AM 57.2 °F 50.0 °F 77% 30.04 in 10.0 mi NE 4.6 mph - N/A   Clear
4:35 AM 59.0 °F 46.4 °F 63% 30.05 in 10.0 mi Calm Calm - N/A   Clear
4:55 AM 59.0 °F 46.4 °F 63% 30.05 in 10.0 mi NE 3.5 mph - N/A   Clear
5:15 AM 59.0 °F 44.6 °F 59% 30.04 in 10.0 mi ENE 6.9 mph - N/A   Clear
5:35 AM 59.0 °F 44.6 °F 59% 30.04 in 10.0 mi ENE 6.9 mph - N/A   Clear
5:55 AM 59.0 °F 42.8 °F 55% 30.04 in 10.0 mi ENE 9.2 mph - N/A   Clear
6:15 AM 59.0 °F 42.8 °F 55% 30.05 in 10.0 mi ENE 6.9 mph - N/A   Clear
6:35 AM 59.0 °F 42.8 °F 55% 30.06 in 10.0 mi NE 4.6 mph - N/A   Clear
6:55 AM 59.0 °F 42.8 °F 55% 30.06 in 10.0 mi NE 8.1 mph - N/A   Clear
7:15 AM 59.0 °F 41.0 °F 51% 30.07 in 10.0 mi ENE 6.9 mph - N/A   Clear
7:35 AM 59.0 °F 41.0 °F 51% 30.06 in 10.0 mi ENE 6.9 mph - N/A   Clear
7:55 AM 57.2 °F 41.0 °F 55% 30.07 in 10.0 mi NE 4.6 mph - N/A   Clear
8:15 AM 59.0 °F 41.0 °F 51% 30.07 in 10.0 mi ENE 4.6 mph - N/A   Clear
8:35 AM 59.0 °F 41.0 °F 51% 30.08 in 10.0 mi ENE 6.9 mph - N/A   Scattered Clouds
8:55 AM 59.0 °F 42.8 °F 55% 30.07 in 10.0 mi ENE 8.1 mph - N/A   Clear
9:15 AM 59.0 °F 42.8 °F 55% 30.08 in 10.0 mi ENE 5.8 mph - N/A   Clear
9:35 AM 59.0 °F 44.6 °F 59% 30.08 in 10.0 mi ENE 3.5 mph - N/A   Clear
9:55 AM 59.0 °F 44.6 °F 59% 30.09 in 10.0 mi Calm Calm - N/A   Clear
10:15 AM 59.0 °F 44.6 °F 59% 30.10 in 10.0 mi ENE 3.5 mph - N/A   Clear
10:35 AM 60.8 °F 44.6 °F 55% 30.10 in 10.0 mi Calm Calm - N/A   Mostly Cloudy
10:55 AM 60.8 °F 46.4 °F 59% 30.09 in 10.0 mi ENE 5.8 mph - N/A   Mostly Cloudy
11:15 AM 60.8 °F 46.4 °F 59% 30.08 in 10.0 mi ENE 4.6 mph - N/A   Scattered Clouds
11:35 AM 62.6 °F 46.4 °F 55% 30.08 in 10.0 mi ENE 6.9 mph - N/A   Scattered Clouds
11:55 AM 62.6 °F 46.4 °F 55% 30.08 in 10.0 mi ENE 3.5 mph - N/A   Scattered Clouds
12:15 PM 62.6 °F 46.4 °F 55% 30.09 in 10.0 mi ENE 4.6 mph - N/A   Mostly Cloudy
12:35 PM 62.6 °F 46.4 °F 55% 30.09 in 10.0 mi Calm Calm - N/A   Mostly Cloudy
12:55 PM 62.6 °F 50.0 °F 63% 30.11 in 10.0 mi Calm Calm - N/A   Light Drizzle
1:15 PM 62.6 °F 50.0 °F 63% 30.11 in 10.0 mi Calm Calm - N/A   Light Drizzle
1:35 PM 62.6 °F 50.0 °F 63% 30.10 in 10.0 mi Calm Calm - N/A Rain Light Rain
1:55 PM 62.6 °F 51.8 °F 68% 30.11 in 10.0 mi Calm Calm - N/A Rain Light Rain
2:15 PM 60.8 °F 53.6 °F 77% 30.11 in 10.0 mi Calm Calm - N/A Rain Rain
2:35 PM 60.8 °F 53.6 °F 77% 30.11 in 10.0 mi Calm Calm - N/A Rain Light Rain
2:55 PM 60.8 °F 55.4 °F 82% 30.11 in 7.0 mi Calm Calm - N/A Rain Rain
3:15 PM 59.0 °F 55.4 °F 88% 30.10 in 7.0 mi Calm Calm - N/A Rain Light Rain
3:35 PM 59.0 °F 55.4 °F 88% 30.09 in 10.0 mi NNE 4.6 mph - N/A Rain Light Rain
3:55 PM 59.0 °F 55.4 °F 88% 30.08 in 10.0 mi North 3.5 mph - N/A Rain Rain
4:15 PM 59.0 °F 55.4 °F 88% 30.08 in 10.0 mi Calm Calm - N/A Rain Light Rain
4:35 PM 59.0 °F 55.4 °F 88% 30.07 in 10.0 mi NE 4.6 mph - N/A   Drizzle
4:55 PM 59.0 °F 55.4 °F 88% 30.07 in 10.0 mi Calm Calm - N/A   Drizzle
5:15 PM 59.0 °F 55.4 °F 88% 30.06 in 10.0 mi East 4.6 mph - N/A   Drizzle
5:35 PM 59.0 °F 55.4 °F 88% 30.04 in 10.0 mi East 8.1 mph - N/A   Light Drizzle
5:55 PM 57.2 °F 55.4 °F 94% 29.99 in 10.0 mi East 13.8 mph - N/A   Light Drizzle
6:15 PM 57.2 °F 55.4 °F 94% 29.99 in 10.0 mi East 11.5 mph 18.4 mph N/A   Scattered Clouds
6:35 PM 57.2 °F 55.4 °F 94% 29.98 in 10.0 mi ENE 11.5 mph 17.3 mph N/A   Scattered Clouds
6:55 PM 57.2 °F 55.4 °F 94% 29.98 in 10.0 mi ENE 9.2 mph 16.1 mph N/A   Clear
7:15 PM 59.0 °F 55.4 °F 88% 29.97 in 10.0 mi East 10.4 mph - N/A   Scattered Clouds
7:35 PM 59.0 °F 55.4 °F 88% 29.98 in 10.0 mi ENE 9.2 mph - N/A   Overcast
7:55 PM 59.0 °F 55.4 °F 88% 29.97 in 10.0 mi ENE 11.5 mph - N/A   Overcast
8:15 PM 59.0 °F 55.4 °F 88% 29.99 in 10.0 mi ENE 10.4 mph - N/A   Overcast
8:35 PM 59.0 °F 55.4 °F 88% 30.00 in 10.0 mi ENE 9.2 mph - N/A   Overcast
8:55 PM 59.0 °F 55.4 °F 88% 30.00 in 10.0 mi ENE 9.2 mph - N/A   Overcast
9:15 PM 59.0 °F 55.4 °F 88% 30.02 in 10.0 mi ENE 8.1 mph - N/A   Overcast
9:35 PM 59.0 °F 55.4 °F 88% 30.03 in 10.0 mi ENE 8.1 mph 17.3 mph N/A   Overcast
9:55 PM 59.0 °F 55.4 °F 88% 30.04 in 10.0 mi East 11.5 mph 16.1 mph N/A   Overcast
10:15 PM 59.0 °F 55.4 °F 88% 30.03 in 10.0 mi East 10.4 mph 20.7 mph N/A   Overcast
10:35 PM 59.0 °F 55.4 °F 88% 30.03 in 10.0 mi East 10.4 mph - N/A   Overcast
10:55 PM 59.0 °F 57.2 °F 94% 30.03 in 10.0 mi ENE 8.1 mph - N/A   Overcast
11:15 PM 59.0 °F 57.2 °F 94% 30.03 in 10.0 mi East 9.2 mph - N/A   Overcast
11:35 PM 59.0 °F 57.2 °F 94% 30.03 in 10.0 mi East 12.7 mph - N/A   Overcast
11:55 PM 59.0 °F 57.2 °F 94% 30.02 in 10.0 mi ENE 8.1 mph - N/A   Overcast